Wind_Speed
35 35 36 37 37 37 37 37 37 38 38 39 40 39 39 39 40 40 40 39 39 39 40 39 40 39 38 38 38 38 38 37 37 37 36 36 36 36 36 36 36 37 37
35 35 36 36 37 37 37 37 37 37 38 38 39 39 38 38 39 39 39 39 39 39 40 41 40 39 38 39 39 39 39 38 38 38 38 37 37 38 38 38 38 38 38
35 35 36 36 37 37 37 37 37 37 37 38 38 38 38 37 38 39 39 39 39 39 40 40 40 39 39 39 39 39 39 39 39 39 39 39 38 39 38 39 39 39 39
36 35 36 36 37 37 37 37 36 37 37 38 37 37 37 37 37 37 39 39 39 39 39 40 40 40 40 40 40 39 39 39 40 40 40 41 41 40 38 38 39 40 40
36 36 36 36 37 37 37 37 37 37 37 37 37 37 37 36 36 37 37 38 39 39 39 40 41 41 41 40 40 40 40 41 41 41 41 42 43 42 42 41 41 41 42
35 35 36 37 36 36 37 37 38 38 38 38 38 38 38 37 36 36 36 36 37 38 39 39 40 40 40 40 40 41 41 42 42 42 42 42 43 43 43 43 43 42 42
34 35 36 36 37 36 37 37 38 38 38 37 37 38 38 38 37 36 36 36 37 37 38 38 38 38 39 40 40 41 42 43 43 43 43 43 44 44 44 44 44 44 43
34 35 35 36 36 36 36 36 37 37 37 37 37 37 38 38 38 37 37 36 36 37 37 38 37 37 38 39 40 40 41 43 44 44 44 44 44 44 44 44 44 44 44
34 34 34 35 36 36 36 36 36 36 36 37 37 37 37 37 37 37 37 37 36 36 37 37 37 38 38 37 38 40 41 42 43 44 45 46 45 46 46 45 45 45 45
33 33 33 34 34 35 35 35 35 35 35 36 36 37 37 37 37 38 38 38 38 38 38 38 38 38 39 40 40 41 41 42 42 43 44 45 45 45 46 46 46 46 46
32 33 33 33 34 34 34 34 34 35 35 35 36 37 37 37 38 38 38 39 39 39 40 39 39 40 39 40 41 43 43 42 42 43 42 44 45 45 46 46 46 47 47
32 32 32 32 32 32 33 33 34 34 34 35 35 36 37 37 38 38 39 39 40 40 41 41 41 41 42 42 42 43 43 44 44 44 43 43 43 43 44 46 46 46 47
31 31 31 31 31 31 31 31 32 33 34 34 35 35 36 37 38 39 39 40 40 41 41 41 42 43 43 43 44 44 44 44 45 46 45 45 45 45 45 46 46 46 47
30 31 31 31 31 30 30 30 31 31 32 33 33 34 35 37 38 39 39 40 40 41 41 41 42 43 43 44 44 45 46 46 46 47 47 48 48 48 48 47 47 47 47
31 31 31 31 31 31 31 31 31 31 31 32 33 34 35 36 38 38 39 39 40 40 41 41 42 43 43 44 45 46 47 47 48 48 48 48 48 48 48 47 47 47 48
31 31 31 31 31 31 31 32 32 32 32 32 33 34 35 35 36 37 38 39 39 40 41 41 42 43 43 44 45 46 46 46 47 47 47 47 47 48 48 48 47 48 48
30 29 30 31 31 31 31 32 33 33 34 34 34 34 35 35 36 37 37 38 39 40 40 41 42 42 43 44 46 46 45 45 46 46 47 47 48 48 48 48 48 48 48
31 31 30 31 31 31 32 32 32 32 33 34 34 34 34 35 36 36 37 38 38 39 39 40 41 41 42 42 42 43 44 44 45 45 45 46 46 47 47 47 48 48 48
32 32 31 32 32 32 32 33 33 33 33 33 34 34 34 34 35 35 36 36 37 37 37 38 39 40 40 41 42 42 42 42 43 43 44 44 45 45 45 46 47 47 48
32 32 32 32 32 33 33 33 33 33 33 33 33 33 33 33 34 34 35 35 36 37 37 38 39 40 40 41 41 41 41 41 41 41 42 42 43 43 44 45 45 45 46
32 32 32 32 32 33 33 32 33 33 33 33 33 33 33 32 33 33 34 35 35 36 37 37 38 39 39 40 40 40 40 40 40 40 40 41 41 42 43 43 44 44 45
33 33 32 32 32 32 32 31 31 31 31 31 31 31 31 31 32 32 32 33 34 35 35 36 37 38 38 39 39 39 40 40 40 39 40 40 41 42 42 42 43 44 44
33 33 32 32 32 32 32 32 31 31 31 30 30 30 31 31 31 32 32 33 33 33 34 35 36 37 38 38 38 39 39 39 39 39 40 40 41 41 42 42 42 42 43
32 31 31 31 31 31 31 31 31 31 31 31 31 31 31 31 31 32 33 33 33 33 33 34 35 36 36 37 38 39 39 39 39 39 39 40 40 41 41 41 41 41 42
29 29 30 30 30 30 30 30 30 30 30 31 31 31 32 32 32 32 33 33 34 34 34 34 35 35 35 36 37 38 38 38 38 38 38 39 39 40 40 41 41 41 42
28 29 29 30 30 30 30 30 30 30 30 31 31 31 31 32 32 32 33 33 34 34 34 34 34 35 35 35 36 37 37 37 37 37 38 38 38 38 39 40 40 41 41
Wind_Direction
263 263 263 264 264 264 265 265 264 263 262 261 260 259 258 257 258 257 254 254 253 253 251 250 251 251 252 253 253 254 256 257 259 261 262 264 265 268 269 270 270 270 271
264 264 264 265 264 264 264 264 264 263 262 261 259 259 258 256 256 256 256 254 253 253 252 250 250 251 251 251 253 254 255 255 257 259 261 262 264 267 269 270 271 272 272
264 264 264 264 265 265 265 265 264 263 262 261 259 258 257 256 256 256 255 254 253 252 251 250 250 251 251 251 252 254 255 256 257 259 261 262 264 266 268 270 272 272 273
264 265 264 265 265 265 266 265 265 263 261 260 259 258 258 256 256 256 254 253 252 252 251 250 250 250 252 252 253 254 255 257 258 259 261 264 266 267 267 268 270 271 272
264 265 264 265 266 266 265 265 264 263 261 259 258 257 257 256 256 256 254 253 252 251 251 250 251 252 253 253 254 254 256 257 259 260 262 264 266 267 268 268 270 271 272
263 264 265 265 265 266 265 264 264 263 261 260 259 257 256 255 256 256 254 253 251 250 250 250 251 252 253 254 255 256 257 258 260 261 262 264 265 267 268 270 272 272 273
264 265 265 264 265 266 265 264 263 262 261 260 259 257 256 255 256 256 256 254 252 251 250 251 251 252 254 255 257 259 259 260 261 262 264 266 267 268 269 270 272 272 273
267 266 267 266 266 265 265 264 263 261 260 260 258 257 256 256 255 255 254 255 253 251 251 253 253 255 256 257 260 261 262 262 262 264 265 267 267 268 269 270 271 272 273
267 267 267 267 267 266 264 262 261 260 260 259 259 257 256 255 254 254 255 255 253 251 251 253 254 256 258 260 261 262 262 262 263 265 266 266 268 269 269 270 271 272 273
266 266 268 268 267 266 264 261 260 259 259 258 257 257 256 255 254 254 255 255 254 252 252 253 255 257 259 260 261 263 265 265 265 266 266 266 268 270 270 271 271 272 273
265 267 267 267 267 265 263 261 260 259 258 257 257 257 257 256 255 255 255 254 254 253 254 255 256 258 260 262 263 264 266 267 268 268 268 268 268 269 270 270 271 271 273
266 266 267 268 267 265 263 262 261 260 259 258 258 258 258 258 257 256 256 255 254 254 255 256 258 260 261 263 264 265 267 267 268 269 270 269 268 270 272 271 271 272 274
267 267 267 267 265 264 262 261 261 260 259 259 259 259 259 259 258 257 257 256 256 256 256 258 260 261 263 265 266 266 267 268 269 270 270 269 269 270 273 273 273 274 275
268 267 266 267 264 262 260 260 260 260 260 260 261 261 261 261 260 259 258 257 257 257 258 260 262 263 264 265 266 267 267 269 270 270 270 270 270 271 272 273 274 275 276
269 267 265 265 265 262 260 260 260 261 262 262 263 264 264 263 262 261 260 258 258 259 259 260 263 264 265 266 267 268 269 270 270 270 270 271 271 271 272 273 273 274 276
269 267 265 265 266 265 263 262 262 262 263 264 265 266 265 265 264 262 260 259 260 261 261 262 264 265 266 267 268 269 270 270 270 270 271 271 272 272 272 273 273 274 275
270 268 268 268 267 266 265 265 265 264 264 266 266 266 266 265 264 263 262 262 262 262 263 264 265 266 268 269 270 270 271 271 271 271 271 272 273 272 273 273 274 275 275
269 270 271 270 268 267 267 267 266 266 266 267 267 267 266 265 264 263 263 263 264 265 266 266 267 268 269 270 271 271 272 272 272 272 272 273 273 273 273 274 275 276 275
270 271 271 271 269 268 268 267 266 266 267 268 267 266 265 265 265 265 265 266 266 266 267 268 268 270 271 271 272 273 273 273 273 273 273 274 275 275 274 274 275 277 276
269 271 272 272 270 270 269 268 267 266 267 267 266 265 265 265 265 266 267 268 268 268 268 268 269 270 271 272 273 273 273 274 274 274 274 275 275 275 274 275 276 276 277
269 270 271 271 271 271 270 269 267 266 266 265 265 265 265 265 266 267 269 269 269 270 270 270 271 271 272 274 274 274 274 274 274 274 275 276 276 276 276 277 277 277 278
269 269 270 270 271 270 269 268 267 266 266 265 265 265 265 266 267 269 270 270 271 272 272 272 273 273 273 274 275 275 275 275 275 275 275 276 277 277 278 278 279 278 278
269 270 269 269 269 268 268 267 267 266 265 264 265 266 266 268 269 270 271 272 272 273 273 274 274 274 274 274 275 275 275 275 276 277 277 277 277 278 278 279 279 279 280
270 271 270 269 269 268 267 266 266 266 265 264 265 267 268 270 271 272 272 273 274 275 275 276 276 276 275 275 275 275 276 277 277 278 278 278 277 278 278 278 279 280 281
269 269 269 269 269 268 268 267 267 267 266 265 266 268 269 271 272 273 273 273 274 276 277 277 277 277 277 277 276 276 276 277 277 278 279 279 278 278 278 279 281 282 283
271 270 269 269 269 268 268 268 268 268 267 266 267 269 271 272 273 275 276 275 276 276 277 278 278 278 278 277 277 277 277 278 279 280 281 281 280 280 281 282 282 283 284
Height
5719 5719 5720 5720 5721 5722 5723 5723 5724 5725 5726 5726 5727 5728 5730 5731 5732 5733 5734 5735 5737 5739 5741 5744 5747 5749 5751 5753 5755 5757 5759 5761 5763 5764 5766 5767 5767 5768 5768 5769 5769 5769 5769
5710 5710 5711 5711 5712 5713 5713 5714 5714 5715 5716 5717 5717 5718 5720 5721 5722 5723 5724 5726 5727 5729 5731 5734 5736 5739 5742 5744 5746 5748 5750 5752 5754 5755 5756 5758 5759 5759 5760 5760 5760 5760 5760
5701 5701 5702 5702 5702 5703 5704 5704 5705 5705 5706 5707 5707 5709 5710 5711 5713 5714 5715 5716 5718 5719 5721 5724 5727 5729 5732 5735 5737 5739 5741 5743 5745 5746 5747 5749 5750 5751 5751 5750 5751 5751 5751
5692 5692 5693 5693 5693 5694 5694 5694 5695 5695 5696 5697 5698 5699 5701 5702 5704 5704 5706 5707 5709 5710 5712 5714 5717 5720 5723 5725 5727 5730 5732 5734 5735 5737 5738 5739 5740 5741 5741 5742 5741 5741 5741
5682 5683 5683 5684 5684 5684 5684 5684 5685 5685 5686 5687 5688 5690 5691 5693 5694 5695 5696 5698 5700 5701 5703 5706 5708 5711 5713 5715 5718 5720 5722 5724 5725 5727 5728 5728 5729 5730 5731 5732 5732 5731 5730
5673 5673 5674 5674 5674 5674 5674 5674 5674 5675 5676 5677 5679 5680 5682 5684 5685 5686 5688 5689 5691 5693 5695 5697 5699 5702 5704 5706 5708 5710 5712 5713 5715 5716 5717 5717 5718 5719 5720 5720 5721 5721 5720
5664 5664 5664 5664 5664 5664 5664 5664 5664 5665 5666 5668 5669 5671 5672 5674 5676 5678 5679 5681 5683 5685 5687 5689 5691 5694 5696 5697 5699 5700 5701 5703 5704 5705 5706 5706 5707 5708 5708 5709 5709 5709 5709
5655 5655 5655 5654 5655 5654 5654 5654 5654 5655 5656 5658 5660 5661 5663 5665 5667 5669 5671 5672 5674 5676 5678 5680 5683 5685 5686 5688 5689 5690 5691 5692 5693 5694 5694 5695 5695 5696 5696 5697 5697 5698 5698
5645 5645 5645 5645 5645 5645 5644 5644 5645 5646 5647 5649 5650 5652 5654 5656 5658 5660 5662 5664 5666 5668 5670 5672 5674 5676 5677 5678 5679 5680 5681 5681 5682 5683 5683 5684 5684 5684 5685 5685 5685 5686 5686
5636 5636 5636 5636 5636 5635 5635 5635 5636 5637 5638 5640 5641 5643 5645 5647 5649 5651 5653 5655 5657 5659 5661 5663 5665 5666 5667 5669 5670 5670 5671 5671 5672 5672 5672 5673 5673 5672 5673 5673 5673 5673 5674
5627 5628 5628 5627 5627 5626 5626 5627 5628 5629 5630 5631 5633 5634 5636 5638 5639 5642 5644 5646 5648 5650 5652 5654 5655 5657 5658 5659 5660 5660 5660 5661 5661 5661 5661 5661 5661 5661 5661 5661 5661 5661 5661
5619 5619 5619 5619 5618 5618 5618 5618 5619 5620 5622 5623 5624 5626 5627 5629 5631 5633 5635 5636 5639 5641 5642 5644 5645 5647 5648 5648 5649 5650 5650 5650 5650 5650 5650 5650 5650 5649 5649 5649 5649 5649 5648
5610 5610 5610 5610 5610 5610 5610 5611 5611 5612 5613 5615 5616 5617 5619 5620 5622 5623 5625 5627 5629 5631 5633 5634 5635 5636 5637 5638 5638 5638 5639 5639 5639 5638 5638 5638 5638 5638 5637 5637 5636 5636 5636
5602 5602 5602 5602 5602 5602 5602 5603 5603 5604 5605 5606 5608 5609 5610 5611 5612 5614 5615 5617 5619 5621 5622 5623 5624 5625 5626 5626 5627 5627 5627 5627 5627 5626 5626 5626 5626 5626 5625 5625 5624 5624 5623
5594 5594 5594 5594 5594 5594 5594 5595 5595 5596 5597 5598 5599 5600 5601 5602 5603 5604 5605 5607 5608 5610 5611 5612 5613 5613 5614 5614 5615 5615 5615 5615 5614 5614 5613 5613 5613 5613 5612 5612 5611 5611 5610
5586 5585 5586 5586 5586 5586 5586 5587 5587 5588 5589 5590 5590 5591 5591 5592 5593 5594 5595 5597 5598 5599 5600 5601 5602 5602 5602 5602 5602 5602 5602 5602 5601 5601 5601 5600 5600 5600 5599 5598 5598 5597 5596
5577 5577 5577 5577 5577 5577 5578 5578 5578 5579 5580 5581 5581 5581 5582 5583 5584 5584 5586 5587 5588 5589 5589 5590 5590 5591 5591 5590 5590 5590 5589 5589 5588 5588 5588 5588 5587 5586 5586 5585 5584 5583 5582
5569 5569 5569 5569 5569 5569 5569 5569 5570 5570 5571 5571 5572 5572 5573 5573 5574 5575 5575 5576 5577 5578 5578 5579 5579 5579 5579 5578 5578 5577 5576 5576 5575 5575 5575 5574 5574 5573 5572 5572 5571 5570 5569
5560 5560 5560 5560 5560 5560 5560 5560 5561 5561 5562 5562 5562 5563 5563 5564 5564 5565 5565 5566 5566 5567 5567 5567 5567 5567 5567 5566 5566 5565 5564 5563 5562 5562 5561 5561 5560 5560 5559 5559 5558 5557 5556
5551 5551 5551 5551 5551 5551 5551 5551 5551 5552 5552 5552 5553 5553 5553 5554 5555 5555 5556 5556 5556 5556 5556 5556 5556 5556 5555 5555 5554 5553 5552 5552 5551 5550 5549 5548 5548 5546 5545 5545 5545 5544 5542
5542 5542 5542 5542 5542 5541 5541 5541 5542 5542 5542 5543 5543 5544 5544 5545 5545 5546 5546 5546 5546 5546 5546 5546 5545 5545 5544 5543 5542 5541 5540 5539 5538 5538 5537 5536 5535 5534 5533 5532 5532 5531 5529
5532 5532 5532 5532 5532 5532 5532 5532 5532 5532 5532 5533 5534 5534 5535 5535 5536 5536 5536 5536 5536 5536 5535 5535 5534 5533 5532 5532 5530 5529 5529 5528 5527 5526 5525 5524 5523 5522 5520 5519 5518 5517 5516
5523 5523 5523 5522 5522 5522 5522 5523 5523 5523 5523 5524 5524 5525 5525 5526 5526 5526 5527 5526 5526 5525 5525 5524 5524 5523 5521 5520 5519 5518 5517 5516 5515 5514 5513 5512 5510 5509 5508 5507 5506 5504 5503
5513 5513 5513 5512 5512 5512 5512 5513 5513 5514 5514 5514 5515 5516 5516 5516 5517 5517 5517 5516 5516 5515 5514 5514 5513 5512 5510 5509 5508 5507 5506 5505 5503 5502 5501 5499 5498 5497 5496 5494 5493 5491 5490
5503 5503 5503 5503 5503 5503 5503 5503 5504 5504 5504 5505 5506 5506 5506 5507 5507 5507 5506 5506 5506 5505 5504 5503 5502 5501 5500 5498 5497 5495 5495 5493 5492 5490 5489 5488 5486 5485 5484 5482 5480 5478 5477
5494 5494 5494 5494 5494 5494 5494 5494 5494 5494 5495 5496 5496 5497 5497 5497 5497 5497 5496 5495 5495 5494 5493 5492 5491 5490 5489 5487 5485 5484 5483 5482 5480 5479 5478 5476 5475 5473 5472 5470 5468 5466 5464